Showing default

BRO-6, 52422

Orbit data source: Space-Track

BRO-6, 52422 is a payload satellite owned by Unseen Labs (FR) in SSO that was launched on Mon, 02 May 2022 UTC via an ELECTRON launch vehicle from the Rocket Lab Launch Complex (RLLC). Payload-class satellites include a variety of spacecraft equipped with specific instruments for various scientific and technological missions. These include communications satellites like Starlink; space stations such as the ISS; scientific satellites like the Hubble; Earth observation satellites from companies like Planet Labs, Umbra, and HawkEye 360; GPS; miniature CubeSats for education and research; and military/defense satellites.

Loading next visibility...
Identifier
52422, 2022-047AE
Orbit
SSO
Country
Flag of FRFR
Related business
Manufacturer
GOMSpace
Mission
Operational Commercial Sigint
Bus & Motor
CUBESAT 6U, Unknown motor
Mass
10 kg wet, ~10 kg dry
Launch date (UTC)
2022-05-02 (4 years ago)
Launch vehicle
ELECTRON
Launch site
Rocket Lab Launch Complex (RLLC)
Object type
Payload
Rocket body
Debris
Shape & HBR
Box, 0.1 m
Radar Cross Section
0.080 m², Medium (>0.1 m² and < 1m²)

Expand to show TLE details & history
Last TLE update: 7 hours ago

TLE from 7 hours ago
0 BRO-6
1 52422U 22047AE  26037.96327057  .00017638  00000-0  39553-3 0  9990
2 52422  97.3460 127.2748 0004839 166.9189 193.2186 15.43458684211025
Epoch: 2026-02-06T23:07Z
TLE epoch observation values (Epoch: 2026-02-06T23:07:06.577Z)
Latitude
0.00005°
Longitude
3.40378°
Altitude
442.245 km
Speed
7.645 km/s
True Right ascension
08h 29m 05s
True Declination
0° 00' 00"
Sunlit
Object was in full shadow at epoch
Visualization orbit readout
Latitude
Unknown
Longitude
Unknown
Altitude
Unknown
Speed
Unknown
Apparent Right ascension
Unknown
Apparent Declination
Unknown
Sunlit
N/A
Visualization observer readout
Local Sidereal Time
08:18:06
Azimuth
Unknown
Elevation
Unknown
Doppler factor
Unknown
Orbital elements
Apogee altitude
436.139 km
Perigee altitude
429.547 km
Semi-major axis
6,810.98 km
Eccentricity
0.00048
Inclination
97.346°
RAAN
127.2748°
Arg. of periapsis
166.9189°
True anomaly
193.20593°
Mean anomaly
193.2186°
Eccentric anomaly
193.21226°
Mean motion
3.86126 °/min
Orbital period
93.23 mins
BSTAR
0.00039553
Loading maneuver chart data...
Computing Atmospheric mass density...

Documentation

Showing up to 5 results
|